Regional Weather Roundup
Issued by NWS Charleston, WV

Home | Current Version | Previous Version | Text Only | Print | Product List | Glossary Off
Versions: 1 2 3 4 5 6 7 8 9 10 11 12 13 14 15 16 17 18 19 20 21 22 23 24 25 26 27 28 29 30 31 32 33 34 35 36 37 38 39 40 41 42 43 44 45 46 47 48 49 50

000
ASUS41 KRLX 020310
RWRRLX
West Virginia Regional Weather Roundup
National Weather Service Charleston WV
1100 PM EDT WED JUL 01 2015

Note: "fair" indicates few or no clouds below 12,000 feet with no
significant weather and/or obstructions to visibility.

WVZ003-020400-
Northern Panhandle of West Virginia

CITY           SKY/WX    TMP DP  RH WIND       PRES   REMARKS
WHEELING       CLEAR     64  58  80 CALM      29.95S
$$

WVZ009-020400-
Northwest West Virginia

CITY           SKY/WX    TMP DP  RH WIND       PRES   REMARKS
PARKERSBURG    CLEAR     64  63  94 CALM      29.97R
$$

WVZ006-020400-
Western West Virginia

CITY           SKY/WX    TMP DP  RH WIND       PRES   REMARKS
HUNTINGTON     MOCLDY    71  68  90 CALM      29.93R
$$

WVZ015-020400-
West Central West Virginia

CITY           SKY/WX    TMP DP  RH WIND       PRES   REMARKS
CHARLESTON     MOCLDY    70  68  93 S5        29.95R
$$

WVZ022-031-020400-
North Central West Virginia

CITY           SKY/WX    TMP DP  RH WIND       PRES   REMARKS
CLARKSBURG     CLEAR     63  61  93 CALM      29.95R
MORGANTOWN     CLEAR     65  59  81 CALM      29.96R
$$

WVZ025-035-042-045-020400-
Southern West Virginia

CITY           SKY/WX    TMP DP  RH WIND       PRES   REMARKS
BECKLEY        MOCLDY    66  62  87 SW3       30.02R FOG
LOGAN          LGT RAIN  70  68  94 CALM      29.95R
BLUEFIELD      CLOUDY    68  61  78 W6        30.05R
LEWISBURG      MOCLDY    67  65  92 CALM      30.01R FOG
$$

WVZ047-020400-
Northern Mountains of West Virginia

CITY           SKY/WX    TMP DP  RH WIND       PRES   REMARKS
ELKINS         CLEAR     60  57  89 CALM      30.00R FOG
$$

WVZ052-020400-
Eastern Panhandle of West Virginia

CITY           SKY/WX    TMP DP  RH WIND       PRES   REMARKS
MARTINSBURG    CLEAR     67  60  78 CALM      29.93R
PETERSBURG     CLEAR     65  60  83 CALM      29.97R
$$


USA.gov is the U.S. government's official web portal to all federal, state and local government web resources and services.